{"data":{"norad_id":62090,"intl_designator":"2024-220C","name":"STARLINK-11387 [DTC]","alt_names":[],"object_type":"PAYLOAD","status":"ACTIVE","operator":null,"country":"US","launch_date":"2024-11-25","launch_site_code":"AFETR","launch_vehicle":null,"mission":null,"orbit_class":"UNKNOWN","rcs_meters":null,"size_class":null,"mass_kg":null,"dimensions":null,"purposes":["comms"],"wikipedia_slug":null,"has_3d_model":false,"image_url":null,"decayed_at":null,"tle_current":{"epoch":"2026-09-21T03:55:32.951712Z","epoch_age_seconds":124113,"freshness":"FRESH","line1":"1 62090U 24220C   26264.16357583  .00152214  00000+0  11651-2 0  9995","line2":"2 62090  42.9991 305.0453 0001133 250.8807 109.1938 15.70902067105791","mean_motion":15.70902067,"eccentricity":0.0001133,"inclination_deg":42.9991,"raan_deg":305.0453,"arg_perigee_deg":250.8807,"mean_anomaly_deg":109.1938,"bstar":0.0011651,"rev_number":10579,"period_min":91.667076532022,"perigee_km":355.55465459356,"apogee_km":357.0806820214,"semimajor_km":6734.4546683075,"source":"CELESTRAK","updated_at":"2026-09-22T09:00:49.496349Z"}}}